Location: Seattle
(47.6060°N, 122.3310°W)
Time: 11:44:23
(UTC-07:00)

ISS - Visible Passes

Search period start: 27 July 2017 00:00
Search period end: 06 August 2017 00:00
Orbit: 400 x 408 km, 51.6° (Epoch: 28 July)

Date Brightness Start Highest point End Pass type
(mag) Time Alt. Az. Time Alt. Az. Time Alt. Az.
27 Jul -2.4 00:16:38 10° WNW 00:19:43 39° N 00:20:53 28° NE visible
27 Jul -1.1 01:53:11 10° WNW 01:53:29 12° WNW 01:53:29 12° WNW visible
27 Jul -3.7 21:47:18 10° WSW 21:50:33 78° NNW 21:53:50 10° ENE visible
27 Jul -2.4 23:24:13 10° WNW 23:27:18 38° N 23:30:00 13° ENE visible
28 Jul -2.0 01:00:54 10° WNW 01:02:37 28° NW 01:02:37 28° NW visible
28 Jul -2.6 22:31:46 10° W 22:34:54 42° N 22:38:01 10° ENE visible
29 Jul -2.9 00:08:35 10° WNW 00:11:46 46° NNE 00:11:50 46° NNE visible
29 Jul -2.9 21:39:18 10° W 21:42:29 51° NNW 21:45:41 10° ENE visible
29 Jul -2.6 23:16:13 10° WNW 23:19:20 40° N 23:21:06 21° ENE visible
30 Jul -1.4 00:52:45 10° WNW 00:53:43 18° WNW 00:53:43 18° WNW visible
30 Jul -2.4 22:23:48 10° WNW 22:26:53 38° N 22:29:58 10° ENE visible
31 Jul -3.0 00:00:26 10° WNW 00:03:00 49° NW 00:03:00 49° NW visible
31 Jul -2.5 21:31:19 10° WNW 21:34:26 40° N 21:37:32 10° ENE visible
31 Jul -3.1 23:08:05 10° WNW 23:11:16 49° NNE 23:12:18 34° ENE visible
01 Aug -1.0 00:44:37 10° WNW 00:44:56 12° WNW 00:44:56 12° WNW visible
01 Aug -2.7 22:15:42 10° WNW 22:18:49 41° N 22:21:38 12° E visible
01 Aug -2.5 23:52:12 10° WNW 23:54:14 35° WNW 23:54:14 35° WNW visible
02 Aug -2.5 21:23:15 10° WNW 21:26:20 38° N 21:29:25 10° ENE visible
02 Aug -3.8 22:59:50 10° WNW 23:03:06 75° NNE 23:03:35 59° E visible
03 Aug -3.3 22:07:28 10° WNW 22:10:40 54° NNE 22:12:56 17° E visible
03 Aug -1.9 23:44:02 10° WNW 23:45:33 23° W 23:45:33 23° W visible
04 Aug -2.8 21:15:03 10° WNW 21:18:11 43° N 21:21:20 10° E visible
04 Aug -3.9 22:51:33 10° WNW 22:54:47 62° SSW 22:54:55 61° SSW visible
05 Aug -3.9 21:59:08 10° WNW 22:02:23 85° NNE 22:04:19 23° ESE visible
05 Aug -1.3 23:36:09 10° W 23:36:56 14° WSW 23:36:56 14° WSW visible
